Weather in Lipnyaki

Russia / Kaliningrad Oblast     54°24′11″N   21°17′04″E
temp.,
°C
wind,
m/s
gust,
m/s
humid.,
%
clouds,
%
prec.,
mm/h
press.,
hPa
HPBL,
m
13 may, thu
thu1323:00+12ese311850 0.0 1010259
02:00+10ese38890 0.0 1009164
05:00+9se23890 0.0 100746
08:00+14ene227366 0.0 1006273
11:00+16e4664100 0.0 1005703
14:00+15ne247318 0.0 1003769
17:00+14ene578494 1.3 1002748
20:00+9ne47880 1.3 1002304
14 may, fri
fri1423:00+7nne22967 0.0 100234
02:00+6ne00962 0.0 100110
05:00+6wsw11969 0.0 100010
08:00+10ssw1184100 0.0 1001330
11:00+14sw346798 0.0 10011113
14:00+15wsw346796 0.1 10011238
17:00+13nw348066 0.1 1002482
20:00+11wnw349131 0.1 100364
15 may, sat
sat1523:00+8wnw2296100 0.0 100419
02:00+6wsw119541 0.0 100510
05:00+6ssw1194100 0.0 100610
08:00+10sse2385100 0.0 1007154
11:00+12sw2487100 0.0 1008448
14:00+13wsw3484100 0.0 1008609
17:00+14wsw3482100 0.1 1008692
20:00+11wnw119539 0.4 100813
16 may, sun
sun1623:00+11se129467 0.0 100926
02:00+8sse2296100 0.0 100921
05:00+8sse359599 0.0 1009100
08:00+13se358299 0.0 1009294
11:00+15s148386 0.4 1009430
14:00+18sse5879100 2.8 10071117
17:00+17sse488464 2.1 1006809
20:00+13sw2597100 6.5 1005205
17 may, mon
mon1723:00+11w2698100 1.8 1005303
02:00+11sw2698100 1.8 1006189
05:00+9ssw36976 0.0 1007129
08:00+12ssw46850 0.0 1008350
11:00+17ssw45630 0.0 10081393
14:00+19ssw35558 0.0 10081838
17:00+17sse357196 0.3 1007277
20:00+14sw2283100 0.8 100735